• In Hungary
  • List of Countries
  • For 7 days
  • Water Temperature
  • Satellite Maps
  • Weather Map
  • News
  • Weather Widgets
  • user-avatar
    Login

    Hourly Weather Bogorodickoe

    Today, 22 July, Sunday

    Time Temperature Precipitation Wind Pressure Humidity
    00:00 +19°C° 0 mm 3 mps 739 mmHg 95%
    01:00 +19°C° 0 mm 3 mps 739 mmHg 95%
    02:00 +19°C° 0 mm 3 mps 739 mmHg 96%
    03:00 +18°C° 0 mm 2 mps 739 mmHg 98%
    04:00 +19°C° 0 mm 3 mps 739 mmHg 97%
    05:00 +19°C° 0 mm 4 mps 739 mmHg 96%
    06:00 +19°C° 0 mm 4 mps 739 mmHg 95%
    07:00 +20°C° 0 mm 4 mps 739 mmHg 92%
    08:00 +21°C° 0 mm 4 mps 739 mmHg 89%
    09:00 +21°C° 0 mm 4 mps 739 mmHg 86%
    10:00 +22°C° 0.4 mm 5 mps 739 mmHg 82%
    11:00 +23°C° 0.4 mm 5 mps 739 mmHg 79%
    12:00 +26°C° 0.4 mm 5 mps 739 mmHg 75%
    13:00 +26°C° 0.8 mm 6 mps 739 mmHg 75%
    14:00 +26°C° 0.8 mm 6 mps 739 mmHg 75%
    15:00 +26°C° 0.8 mm 6 mps 739 mmHg 76%
    16:00 +24°C° 0.6 mm 6 mps 739 mmHg 78%
    17:00 +23°C° 0.6 mm 5 mps 739 mmHg 81%
    18:00 +23°C° 0.6 mm 5 mps 739 mmHg 84%
    19:00 +22°C° 0.3 mm 5 mps 739 mmHg 86%
    20:00 +21°C° 0.3 mm 5 mps 739 mmHg 89%
    21:00 +20°C° 0.3 mm 6 mps 739 mmHg 91%
    22:00 +20°C° 0.3 mm 6 mps 739 mmHg 91%
    23:00 +20°C° 0.3 mm 6 mps 739 mmHg 91%

    Tomorrow, 23 July, Monday

    Time Temperature Precipitation Wind Pressure Humidity
    00:00 +19°C° 0.3 mm 6 mps 739 mmHg 91%
    01:00 +19°C° 0.2 mm 6 mps 739 mmHg 90%
    02:00 +17°C° 0.2 mm 6 mps 739 mmHg 90%
    03:00 +17°C° 0.2 mm 6 mps 739 mmHg 90%
    04:00 +17°C° 0.1 mm 5 mps 739 mmHg 89%
    05:00 +16°C° 0.1 mm 5 mps 739 mmHg 89%
    06:00 +16°C° 0.1 mm 5 mps 739 mmHg 88%
    07:00 +17°C° 0.3 mm 5 mps 740 mmHg 86%
    08:00 +19°C° 0.3 mm 5 mps 740 mmHg 83%
    09:00 +20°C° 0.3 mm 5 mps 740 mmHg 80%
    10:00 +21°C° 0.3 mm 5 mps 740 mmHg 79%
    11:00 +22°C° 0.3 mm 5 mps 740 mmHg 77%
    12:00 +23°C° 0.3 mm 5 mps 740 mmHg 76%
    13:00 +25°C° 0.9 mm 5 mps 740 mmHg 77%
    14:00 +25°C° 0.9 mm 5 mps 740 mmHg 79%
    15:00 +25°C° 0.9 mm 5 mps 740 mmHg 80%
    16:00 +25°C° 0.2 mm 5 mps 740 mmHg 82%
    17:00 +25°C° 0.2 mm 5 mps 740 mmHg 83%
    18:00 +25°C° 0.2 mm 5 mps 740 mmHg 84%
    19:00 +23°C° 0.5 mm 5 mps 740 mmHg 85%
    20:00 +22°C° 0.5 mm 5 mps 740 mmHg 87%
    21:00 +21°C° 0.5 mm 5 mps 741 mmHg 88%
    22:00 +21°C° 0.2 mm 5 mps 741 mmHg 89%
    23:00 +20°C° 0.2 mm 5 mps 741 mmHg 90%

    Day after tomorrow, 24 July, Tuesday

    Time Temperature Precipitation Wind Pressure Humidity
    00:00 +20°C° 0.2 mm 5 mps 741 mmHg 90%
    01:00 +19°C° 0.2 mm 5 mps 741 mmHg 90%
    02:00 +19°C° 0.2 mm 4 mps 741 mmHg 91%
    03:00 +18°C° 0.2 mm 4 mps 741 mmHg 91%
    04:00 +18°C° 0 mm 4 mps 742 mmHg 91%
    05:00 +18°C° 0 mm 4 mps 742 mmHg 90%
    06:00 +19°C° 0 mm 3 mps 742 mmHg 90%
    07:00 +20°C° 0 mm 4 mps 742 mmHg 86%
    08:00 +21°C° 0 mm 4 mps 743 mmHg 82%
    09:00 +22°C° 0 mm 4 mps 743 mmHg 78%
    10:00 +23°C° 0.1 mm 4 mps 743 mmHg 76%
    11:00 +25°C° 0.1 mm 5 mps 743 mmHg 73%
    12:00 +26°C° 0.1 mm 5 mps 743 mmHg 71%
    13:00 +26°C° 0.3 mm 5 mps 744 mmHg 72%
    14:00 +26°C° 0.3 mm 5 mps 744 mmHg 73%
    15:00 +25°C° 0.3 mm 5 mps 744 mmHg 74%
    16:00 +25°C° 0.1 mm 5 mps 744 mmHg 75%
    17:00 +23°C° 0.1 mm 4 mps 744 mmHg 77%
    18:00 +24°C° 0.1 mm 3 mps 744 mmHg 78%
    19:00 +22°C° 0 mm 3 mps 744 mmHg 78%
    20:00 +21°C° 0 mm 3 mps 745 mmHg 78%
    21:00 +21°C° 0 mm 3 mps 745 mmHg 78%
    22:00 +20°C° 0 mm 4 mps 745 mmHg 76%
    23:00 +20°C° 0 mm 4 mps 745 mmHg 74%

    25 July, Wednesday

    Time Temperature Precipitation Wind Pressure Humidity
    00:00 +20°C° 0 mm 4 mps 745 mmHg 72%
    01:00 +20°C° 0 mm 4 mps 745 mmHg 68%
    02:00 +20°C° 0 mm 4 mps 745 mmHg 65%
    03:00 +20°C° 0 mm 4 mps 745 mmHg 62%
    04:00 +19°C° 0 mm 4 mps 745 mmHg 64%
    05:00 +19°C° 0 mm 4 mps 745 mmHg 65%
    06:00 +18°C° 0 mm 4 mps 745 mmHg 67%
    07:00 +19°C° 0 mm 4 mps 746 mmHg 67%
    08:00 +19°C° 0 mm 5 mps 746 mmHg 67%
    09:00 +20°C° 0 mm 5 mps 746 mmHg 67%
    10:00 +21°C° 0 mm 5 mps 746 mmHg 65%
    11:00 +22°C° 0 mm 5 mps 747 mmHg 62%
    12:00 +23°C° 0 mm 6 mps 747 mmHg 59%
    13:00 +24°C° 0 mm 6 mps 747 mmHg 58%
    14:00 +26°C° 0 mm 6 mps 747 mmHg 56%
    15:00 +26°C° 0 mm 6 mps 747 mmHg 55%
    16:00 +26°C° 0 mm 5 mps 747 mmHg 60%
    17:00 +26°C° 0 mm 5 mps 747 mmHg 64%
    18:00 +25°C° 0 mm 4 mps 747 mmHg 69%
    19:00 +23°C° 0 mm 4 mps 747 mmHg 72%
    20:00 +22°C° 0 mm 4 mps 747 mmHg 74%
    21:00 +21°C° 0 mm 4 mps 747 mmHg 77%
    22:00 +21°C° 0 mm 4 mps 747 mmHg 77%
    23:00 +20°C° 0 mm 4 mps 747 mmHg 76%

    26 July, Thursday

    Time Temperature Precipitation Wind Pressure Humidity
    00:00 +19°C° 0 mm 4 mps 747 mmHg 76%
    01:00 +20°C° 0 mm 4 mps 747 mmHg 73%
    02:00 +21°C° 0 mm 4 mps 747 mmHg 70%
    03:00 +21°C° 0 mm 4 mps 747 mmHg 67%
    04:00 +21°C° 0 mm 4 mps 748 mmHg 67%
    05:00 +21°C° 0 mm 4 mps 748 mmHg 68%
    06:00 +21°C° 0 mm 5 mps 748 mmHg 69%
    07:00 +22°C° 0 mm 5 mps 748 mmHg 68%
    08:00 +23°C° 0 mm 5 mps 748 mmHg 68%
    09:00 +25°C° 0 mm 5 mps 748 mmHg 67%
    10:00 +26°C° 0 mm 5 mps 748 mmHg 63%
    11:00 +28°C° 0 mm 6 mps 748 mmHg 58%
    12:00 +29°C° 0 mm 6 mps 749 mmHg 54%
    13:00 +30°C° 0 mm 5 mps 749 mmHg 54%
    14:00 +30°C° 0 mm 5 mps 749 mmHg 54%
    15:00 +32°C° 0 mm 5 mps 749 mmHg 53%
    16:00 +30°C° 0 mm 5 mps 749 mmHg 58%
    17:00 +29°C° 0 mm 4 mps 749 mmHg 62%
    18:00 +29°C° 0 mm 4 mps 749 mmHg 67%
    19:00 +27°C° 0 mm 4 mps 749 mmHg 69%
    20:00 +26°C° 0 mm 4 mps 749 mmHg 72%
    21:00 +25°C° 0 mm 4 mps 749 mmHg 75%
    22:00 +23°C° 0 mm 4 mps 749 mmHg 75%
    23:00 +22°C° 0 mm 4 mps 749 mmHg 75%

    27 July, Friday

    Time Temperature Precipitation Wind Pressure Humidity
    00:00 +22°C° 0 mm 3 mps 750 mmHg 75%
    01:00 +21°C° 0 mm 3 mps 750 mmHg 76%
    02:00 +20°C° 0 mm 3 mps 750 mmHg 77%
    03:00 +20°C° 0 mm 3 mps 750 mmHg 78%
    04:00 +20°C° 0 mm 3 mps 750 mmHg 79%
    05:00 +20°C° 0 mm 3 mps 750 mmHg 80%
    06:00 +20°C° 0 mm 3 mps 750 mmHg 81%
    07:00 +22°C° 0 mm 4 mps 750 mmHg 76%
    08:00 +23°C° 0 mm 4 mps 750 mmHg 72%
    09:00 +26°C° 0 mm 4 mps 751 mmHg 67%
    10:00 +27°C° 0 mm 5 mps 750 mmHg 61%
    11:00 +28°C° 0 mm 5 mps 750 mmHg 56%
    12:00 +30°C° 0 mm 5 mps 750 mmHg 50%
    13:00 +30°C° 0 mm 5 mps 750 mmHg 51%
    14:00 +30°C° 0 mm 4 mps 750 mmHg 52%
    15:00 +30°C° 0 mm 4 mps 750 mmHg 52%
    16:00 +29°C° 0 mm 4 mps 750 mmHg 56%
    17:00 +29°C° 0 mm 3 mps 750 mmHg 60%
    18:00 +28°C° 0 mm 3 mps 750 mmHg 64%
    19:00 +27°C° 0 mm 3 mps 750 mmHg 68%
    20:00 +25°C° 0 mm 3 mps 750 mmHg 72%
    21:00 +22°C° 0 mm 3 mps 750 mmHg 77%
    22:00 +22°C° 0 mm 3 mps 750 mmHg 79%
    23:00 +21°C° 0 mm 3 mps 750 mmHg 81%
    Show more